Regional Weather Roundup
Issued by NWS

Home | Current Version | Previous Version | Graphics & Text | Print | Product List | Glossary On
Versions: 1 2 3 4 5 6 7 8 9 10 11 12 13 14 15 16 17 18 19 20 21 22 23 24 25 26 27 28 29 30 31 32 33 34 35 36 37 38 39 40 41 42 43 44 45 46 47 48 49 50
000
ASUS43 KBIS 241702
RWRND

NORTH DAKOTA REGIONAL WEATHER ROUNDUP
NATIONAL WEATHER SERVICE BISMARCK ND
1200 PM CDT SUN SEP 24 2017

NOTE: "FAIR" INDICATES FEW OR NO CLOUDS BELOW 12,000 FEET WITH NO
SIGNIFICANT WEATHER AND/OR OBSTRUCTIONS TO VISIBILITY.


NDZ001>003-009>011-017-241800-
NORTHWEST NORTH DAKOTA

CITY           SKY/WX    TMP DP  RH WIND       PRES   REMARKS
WILLISTON      CLOUDY    46  41  82 N10       30.10S
MINOT          CLOUDY    49  46  90 NW15      30.02S
MINOT AFB      LGT RAIN  47  45  92 N13       30.02R
$$

NDZ018>021-031>035-040>046-241800-
SOUTHWEST NORTH DAKOTA

CITY           SKY/WX    TMP DP  RH WIND       PRES   REMARKS
BISMARCK       LGT RAIN  50  48  93 N13       29.99F
DICKINSON      CLOUDY    45  43  93 N13G20    30.05R
GARRISON         N/A     46  44  93 N10G18    30.03R
HETTINGER ARPT CLOUDY    45  43  93 N10       30.06R FOG
$$

NDZ004>008-012>016-024-026-027-054-241800-
NORTHEAST NORTH DAKOTA

CITY           SKY/WX    TMP DP  RH WIND       PRES   REMARKS
GRAND FORKS    LGT RAIN  54  53  97 N17       29.85F
GRND FRKS AFB  RAIN      52  52 100 N16       29.88F
DEVILS LAKE    LGT RAIN  47  46  97 N20G30    29.92F
$$

NDZ022-023-025-028>030-036>039-047>053-241800-
SOUTHEAST NORTH DAKOTA

CITY           SKY/WX    TMP DP  RH WIND       PRES   REMARKS
FARGO          RAIN      56  55  97 N9        29.82F FOG
JAMESTOWN      LGT RAIN  50  49  96 N16       29.88F
$$





USA.gov is the U.S. government's official web portal to all federal, state and local government web resources and services.